EW3286 Weather Reports


Display with metric or nautical units.
time (UTC)temp
F
wind
direction
speed
MPH
gust
MPH
rain 1hr
in
rain 24hr
in
rain mn
in
humidity
%
barometer
mb
20260902004553 80 286 0.0 0.0 0.00 0.00 0.00 82 1010.1
20260902003053 80 281 0.0 0.0 0.00 0.00 0.00 81 1009.8
20260902001604 81 276 0.0 0.0 0.00 0.00 0.00 80 1009.8
20260902000052 82 303 0.0 0.0 0.00 0.00 0.00 78 1009.9
20260901234602 83 317 0.0 0.0 0.00 0.00 0.00 77 1009.8
20260901233103 83 329 0.0 0.0 0.00 0.00 0.00 76 1010.1
20260901231551 83 36 0.0 0.0 0.00 0.00 0.00 75 1009.8
20260901230050 83 40 0.0 0.0 0.00 0.00 0.00 73 1009.8
20260901224552 83 324 0.0 0.0 0.00 0.00 0.00 73 1010.0
20260901223048 83 351 0.0 0.0 0.00 0.00 0.00 72 1010.2
20260901221548 84 14 0.0 0.0 0.00 0.00 0.00 71 1009.9
20260901220046 84 344 0.0 0.0 0.00 0.00 0.00 70 1009.9
20260901214543 84 350 0.0 0.0 0.00 0.00 0.00 71 1010.2
20260901213047 84 343 0.0 0.0 0.00 0.00 0.00 71 1010.2
20260901211534 84 315 0.0 0.0 0.00 0.00 0.00 71 1010.3
20260901210034 84 350 0.0 0.0 0.00 0.00 0.00 71 1010.3
20260901204532 84 298 0.0 0.0 0.00 0.00 0.00 71 1010.4
20260901203042 84 340 0.0 0.0 0.00 0.00 0.00 72 1010.4
20260901201529 84 350 0.0 0.0 0.00 0.00 0.00 72 1010.4
20260901200034 84 331 0.0 0.0 0.00 0.00 0.00 70 1010.7
20260901194524 84 18 0.0 0.0 0.00 0.00 0.00 70 1010.8
20260901193024 84 346 0.0 0.0 0.00 0.00 0.00 68 1010.8
20260901191521 84 345 0.0 0.0 0.00 0.00 0.00 68 1010.8
20260901190024 83 305 0.0 0.0 0.00 0.00 0.00 70 1010.8
20260901184515 83 19 0.0 0.0 0.00 0.00 0.00 73 1011.0
20260901183016 83 290 0.0 0.0 0.00 0.00 0.00 72 1011.1
20260901181517 82 331 0.0 0.0 0.00 0.00 0.00 72 1011.4
20260901180008 82 321 0.0 0.0 0.00 0.00 0.00 71 1011.7
20260901174505 82 280 0.0 0.0 0.00 0.00 0.00 71 1012.0
20260901173003 81 296 0.0 0.0 0.00 0.00 0.00 71 1012.2
20260901171502 81 294 0.0 0.0 0.00 0.00 0.00 70 1012.5
20260901170058 80 294 0.0 0.0 0.00 0.00 0.00 71 1012.6
20260901164602 80 312 0.0 0.0 0.00 0.00 0.00 69 1012.4
20260901163054 79 275 0.0 0.0 0.00 0.00 0.00 72 1012.5
20260901161552 79 288 0.0 0.0 0.00 0.00 0.00 72 1012.7
20260901160056 79 266 0.0 0.0 0.00 0.00 0.00 74 1012.4
20260901154552 78 267 0.0 0.0 0.00 0.00 0.00 74 1012.7
20260901153048 77 277 0.0 0.0 0.00 0.00 0.00 77 1012.0
20260901151541 77 318 0.0 0.0 0.00 0.00 0.00 79 1012.0
20260901150039 77 360 0.0 0.0 0.00 0.00 0.00 79 1012.3
20260901144536 76 302 0.0 0.0 0.00 0.00 0.00 78 1012.6
20260901143032 75 302 0.0 0.0 0.00 0.00 0.00 80 1012.5
20260901141528 73 261 0.0 0.0 0.00 0.00 0.00 84 1012.8
20260901140023 70 140 0.0 0.0 0.00 0.00 0.00 89 1012.8
20260901134522 68 140 0.0 0.0 0.00 0.00 0.00 93 1012.9
20260901133020 67 140 0.0 0.0 0.00 0.00 0.00 94 1013.0
20260901131518 66 140 0.0 0.0 0.00 0.00 0.00 94 1013.0
20260901130017 65 140 0.0 0.0 0.00 0.00 0.00 94 1013.0
20260901124518 64 140 0.0 0.0 0.00 0.00 0.00 93 1012.9
20260901123011 64 140 0.0 0.0 0.00 0.00 0.00 92 1012.7
20260901121509 63 140 0.0 0.0 0.00 0.00 0.00 92 1012.5
20260901120006 64 140 0.0 0.0 0.00 0.00 0.00 92 1012.4
20260901114502 64 140 0.0 0.0 0.00 0.00 0.00 92 1012.2
20260901113002 64 140 0.0 0.0 0.00 0.00 0.00 92 1012.4
20260901111502 64 140 0.0 0.0 0.00 0.00 0.00 92 1012.3
20260901110100 64 140 0.0 0.0 0.00 0.00 0.00 92 1012.3
20260901110003 64 140 0.0 0.0 0.00 0.00 0.00 92 1012.3
20260901104607 63 140 0.0 0.0 0.00 0.00 0.00 92 1012.1
20260901103059 63 140 0.0 0.0 0.00 0.00 0.00 92 1012.2
20260901101611 63 140 0.0 0.0 0.00 0.00 0.00 92 1012.1
20260901100100 63 140 0.0 0.0 0.00 0.00 0.00 91 1012.2
20260901094657 63 140 0.0 0.0 0.00 0.00 0.00 90 1012.0
20260901093055 63 140 0.0 0.0 0.00 0.00 0.00 90 1012.0
20260901091603 64 140 0.0 0.0 0.00 0.00 0.00 90 1011.9
20260901090053 64 140 0.0 0.0 0.00 0.00 0.00 90 1011.8
20260901084553 64 140 0.0 0.0 0.00 0.00 0.00 90 1011.8
20260901083051 64 140 0.0 0.0 0.00 0.00 0.00 90 1011.6
20260901081552 64 66 0.0 0.0 0.00 0.00 0.00 89 1011.7
20260901080056 64 66 0.0 0.0 0.00 0.00 0.00 90 1011.9
20260901074550 65 66 0.0 0.0 0.00 0.00 0.00 89 1011.9
20260901073044 65 66 0.0 0.0 0.00 0.00 0.00 88 1011.9
20260901071542 65 66 0.0 0.0 0.00 0.00 0.00 88 1012.1
20260901070040 65 66 0.0 0.0 0.00 0.00 0.00 87 1012.2
20260901064538 66 66 0.0 0.0 0.00 0.00 0.00 85 1012.1
20260901063038 66 66 0.0 0.0 0.00 0.00 0.00 85 1012.2
20260901061532 67 66 0.0 0.0 0.00 0.00 0.00 84 1012.2
20260901060030 68 66 0.0 0.0 0.00 0.00 0.00 84 1012.3
20260901054527 68 66 0.0 0.0 0.00 0.00 0.00 82 1012.1
20260901053024 69 66 0.0 0.0 0.00 0.00 0.00 81 1012.1
20260901051530 69 66 0.0 0.0 0.00 0.00 0.00 80 1012.2
20260901050019 70 66 0.0 0.0 0.00 0.00 0.00 80 1012.1
20260901044515 70 66 0.0 0.0 0.00 0.00 0.00 79 1012.0
20260901043014 71 51 0.0 0.0 0.00 0.00 0.00 78 1011.8
20260901041527 72 32 0.0 0.0 0.00 0.00 0.00 76 1011.7
20260901040019 72 331 0.0 0.0 0.00 0.00 0.00 80 1011.7
20260901034512 71 331 0.0 0.0 0.00 0.00 0.00 84 1011.7
20260901033013 71 331 0.0 0.0 0.00 0.00 0.00 85 1011.7
20260901031511 70 331 0.0 0.0 0.00 0.00 0.00 83 1011.5
20260901030010 70 346 0.0 0.0 0.00 0.00 0.00 79 1011.4
20260901024509 71 346 0.0 0.0 0.00 0.00 0.00 75 1011.3
20260901023010 73 346 0.0 0.0 0.00 0.00 0.00 74 1011.3
20260901021507 74 346 0.0 0.0 0.00 0.00 0.00 72 1011.2
20260901020005 75 346 0.0 0.0 0.00 0.00 0.00 68 1011.0
20260901014509 76 346 0.0 0.0 0.00 0.00 0.00 66 1010.6
20260901013003 78 346 0.0 0.0 0.00 0.00 0.00 65 1010.5
20260901011502 80 346 0.0 0.0 0.00 0.00 0.00 63 1010.4
20260901010002 83 346 0.0 0.0 0.00 0.00 0.00 59 1010.4